Regional Weather Roundup
Issued by NWS

Home | Current Version | Previous Version | Text Only | Print | Product List | Glossary Off
Versions: 1 2 3 4 5 6 7 8 9 10 11 12 13 14 15 16 17 18 19 20 21 22 23 24 25 26 27 28 29 30 31 32 33 34 35 36 37 38 39 40 41 42 43 44 45 46 47 48 49 50

177
ASUS44 KJAN 310703
RWRMS

MISSISSIPPI HOURLY WEATHER ROUNDUP
NATIONAL WEATHER SERVICE JACKSON MS
200 AM CDT FRI OCT 31 2014

NOTE: "FAIR: INDICATES FEW OR NO CLOUDS BELOW 12,000 FEET WITH NO
SIGNIFICANT WEATHER AND/OR OBSTRUCTIONS TO VISIBILITY.

MSZ001>002-007>008-010>013-018>021-025>028-034>036-310800-
NORTHWEST MISSISSIPPI

CITY           SKY/WX    TMP DP  RH WIND       PRES   REMARKS
CLARKSDALE     FAIR      55  50  82 W6        30.01S
CLEVELAND      FAIR      54  51  88 CALM      30.01S
GREENWOOD      MOCLDY    50  49  96 CALM      30.02F
GREENVILLE     CLEAR     56  47  71 SW6       30.02F
GRENADA        FAIR      46  46 100 CALM      30.01F
OLIVE BRANCH   CLEAR     52  48  87 CALM      29.99S
OXFORD         FAIR      52  45  76 S5        30.01S
TUNICA         SUNNY     54  48  82 W5        30.00S
$$

MSZ003>006-009-014>017-022>024-029>033-037>039-310800-
NORTHEAST MISSISSIPPI

CITY           SKY/WX    TMP DP  RH WIND       PRES   REMARKS
COLUMBUS AFB   PTCLDY    46  44  95 SE2       30.01F
CORINTH        LGT RAIN  52  48  87 N7        30.01F
GOLDN TRIANGLE CLEAR     48  43  81 CALM      30.01F
STARKVILLE     FAIR      45  43  93 CALM      30.01F
TUPELO         PTCLDY    50  47  89 CALM      29.99F
$$

MSZ040-058-310800-
CENTRAL MISSISSIPPI

CITY           SKY/WX    TMP DP  RH WIND       PRES   REMARKS
JACKSON INTL   CLEAR     46  43  89 CALM      30.04F
JACKSON HAWKNS CLEAR     50  45  83 CALM      30.04F
MERIDIAN KEY   MOCLDY    42  40  92 CALM      30.04S
MERIDIAN NAS   CLEAR     43  40  89 CALM      30.03F
RAYMOND        FAIR      46  41  81 CALM      30.05F HAZE
VICKSBURG      CLEAR     46  45  96 CALM      30.05F
$$

MSZ059>079-310800-
SOUTH MISSISSIPPI

CITY           SKY/WX    TMP DP  RH WIND       PRES   REMARKS
BROOKHAVEN     FAIR      45  43  93 CALM      30.07F
COLUMBIA         N/A     43  43 100 MISG      30.04F
HATTIESBURG    CLEAR     45  43  93 CALM      30.06S
MCCOMB         CLEAR     48  43  82 NW3       30.06F
NATCHEZ        PTCLDY    48  45  87 CALM      30.07F
PINE BELT      CLEAR     45  39  81 CALM      30.05F
$$

MSZ080>082-310800-
COASTAL MISSISSIPPI

CITY           SKY/WX    TMP DP  RH WIND       PRES   REMARKS
BILOXI         CLEAR     56  45  66 NW2       30.03F
PASCAGOULA     CLEAR     41  41 100 CALM      30.03S
GULFPORT       CLEAR     48  43  82 CALM      30.03F
$$



USA.gov is the U.S. government's official web portal to all federal, state and local government web resources and services.